Find Starlink 3375

NORAD ID: 51114 Int'l Des: 2022-005 Owner: SPXS Country: US Constellation: starlink operational
LEOCIRCULAR

当前视图

正在加载3D地球...

About Starlink 3375

Starlink 3375 (NORAD 51114) is a starlink constellation satellite (v1.5) launched Jan 19, 2022 by SPXS of US. It operates in LEO, CIRCULAR orbit with a mass of 297.00 kg.

即将过境

Passes for default location (London). Set your location on the main map for personalized predictions.

高度历史

Loading altitude history...

两行轨道根数

1 51114U 22005L 26227.40325543 .00000293 00000-0 21198-4 0 9995
2 51114 53.1595 291.8299 0001063 56.5931 303.5172 15.31708731252906
Epoch: Aug 15, 2026 • Age: 6 hours

当前状态

高度 484.5 km
远地点 / 近地点 N/A
速度 7.62 km/s
星下点 -40.88°S, 50.87°E
发射日期 Jan 19, 2022
运行时间 4.5 years
类型 internet

技术详情

分类 Payload
质量 297.00 kg
干质量 275.00 kg
总质量 297.00 kg
长度 0.20 m
直径 2.80 m
跨度 9.00 m
形状 Box + pan
制造商 SPXS
平台类型 Starlink
阶段状态 In Orbit
所有者/国家 SPXS/US

Most Searched